[[{"header":{"parameterUnit":"m.s-1","parameterCategory":1,"la1":30.2991,"la2":30.254,"lo1":-89.0895,"lo2":-89.0444,"dy":0.0017,"dx":0.0017,"nx":28,"ny":28,"refTime":"2025-06-06T09:00:00:Z","depth":0,"parameterNumber":2,"parameterNumberName":"U-component_of_WINDS"},"data":[0,0,0,0,0,0,0,0,0,0,0,0,0,0,0,0,0,0,0,0,0,0,0,0,0,0,0,0,0,0,0,0,0,0,0,0,0,0,0,0,0,0,0,0,0,0,0,0,0,0,0,0,0,0,0,0,0,0,1.1473,1.1474,0,1.1561,1.1562,1.1563,1.1622,1.1622,1.1623,1.1623,1.1716,1.1718,1.172,0,0,0,0,0,0,0,0,0,0,0,0,0,1.1359,1.1361,1.1473,1.1474,1.1476,1.1561,1.1562,1.1563,1.1622,1.1622,1.1623,1.1623,1.1715,1.1717,1.172,0,0,0,0,0,0,0,0,0,0,0,0,0,1.1424,1.1361,1.1473,1.1515,1.152,1.1561,1.1562,1.1564,1.1622,1.1622,1.1623,1.1624,1.1714,1.1717,1.172,1.1728,0,0,1.173,1.1731,0,0,0,0,0,0,0,0,1.142,1.1428,1.1508,1.1512,1.1517,1.1581,1.1556,1.1619,1.1622,1.1583,1.1623,1.1624,1.1671,1.1677,1.1693,1.1732,1.1736,1.173,1.1732,1.1733,1.1734,0,0,0,0,0,0,0,1.1416,1.1425,1.1508,1.1509,1.1515,1.153,1.154,1.1568,1.1623,1.1586,1.1591,1.16,1.1673,1.1689,1.1695,1.1737,1.173,1.1733,1.1735,1.1736,1.1787,1.1787,0,0,0,0,0,0,1.1404,1.142,1.1505,1.1511,1.1469,1.1532,1.1543,1.156,1.1622,1.1632,1.16,1.1603,1.1684,1.1692,1.1699,1.1711,1.1733,1.1736,1.1738,1.1788,1.1787,1.1787,0,0,0,0,0,0,1.1401,1.1411,1.1502,1.1467,1.148,1.1533,1.1552,1.1562,1.1578,1.1632,1.1643,1.1606,1.1685,1.1694,1.172,1.1715,1.1738,1.1741,1.1789,1.1788,1.1787,1.1736,0,0,0,0,0,0,1.1398,1.141,1.1412,1.1466,1.1481,1.152,1.1552,1.1563,1.1583,1.1587,1.1641,1.165,1.1686,1.1715,1.1723,1.172,1.1743,1.1789,1.1788,1.1787,1.1738,1.1733,1.1729,0,0,0,0,0,1.1394,1.1395,1.1412,1.1422,1.1486,1.152,1.1529,1.1569,1.1582,1.1585,1.1621,1.1649,1.1714,1.1717,1.1727,1.1724,1.179,1.1788,1.1787,1.174,1.1734,1.1729,0,0,0,0,0,0,1.134,1.1403,1.1423,1.1442,1.1475,1.153,1.1535,1.1561,1.1592,1.1595,1.1645,1.1656,1.1677,1.1704,1.1705,1.1735,1.1755,1.1756,1.1716,1.1711,1.1707,1.1699,1.1746,0,0,0,0,0,1.133,1.1352,1.1406,1.1418,1.1434,1.1481,1.1498,1.1526,1.1563,1.1577,1.1615,1.165,1.1679,1.1697,1.1726,1.1743,1.1755,1.1746,1.1741,1.1737,1.1737,1.1747,1.1744,1.1783,1.1783,1.1783,0,0,1.131,1.1348,1.1359,1.1408,1.1437,1.1459,1.1493,1.1515,1.1532,1.1581,1.1607,1.1636,1.1679,1.1699,1.171,1.1722,1.1729,1.1736,1.1732,1.1734,1.1746,1.1742,1.1739,1.1782,1.1782,1.1782,0,0,1.1285,1.1316,1.1328,1.1357,1.14,1.1432,1.1435,1.1486,1.1507,1.1533,1.157,1.1592,1.1641,1.167,1.1691,1.1677,1.1704,1.1685,1.1662,1.1671,1.1668,1.1665,1.166,1.1657,1.1685,1.1685,1.1685,0,1.1255,1.1289,1.1332,1.1352,1.1372,1.1417,1.143,1.1456,1.1507,1.1521,1.1534,1.1595,1.1627,1.1655,1.1651,1.1667,1.1672,1.1679,1.1665,1.1663,1.1661,1.1656,1.1654,1.1682,1.1683,1.1683,1.1683,0,1.125,1.1273,1.1278,1.1325,1.1347,1.1364,1.1409,1.1426,1.1452,1.1483,1.151,1.155,1.1588,1.1597,1.1624,1.1629,1.1635,1.1655,1.1677,1.1654,1.165,1.1649,1.1679,1.168,1.168,1.1681,0,0,1.1192,1.1263,1.1264,1.1286,1.1337,1.1356,1.1375,1.1412,1.1425,1.1459,1.1476,1.1516,1.1536,1.156,1.159,1.1598,1.1584,1.1618,1.162,1.1609,1.1591,1.1574,1.1572,1.1602,1.1602,1.1602,1.1587,0,1.1174,1.1209,1.1248,1.127,1.1292,1.1335,1.1352,1.1385,1.1415,1.1438,1.1472,1.1499,1.1523,1.1537,1.1548,1.1583,1.1581,1.1585,1.1619,1.1619,1.1605,1.157,1.1552,1.1536,1.1586,1.1586,1.1586,0,1.1157,1.1188,1.1212,1.1261,1.1272,1.1286,1.1322,1.1344,1.1384,1.1405,1.1431,1.1463,1.1486,1.1506,1.1538,1.154,1.1556,1.1576,1.1576,1.158,1.16,1.1572,1.1532,1.1529,1.1584,1.1585,1.1585,0,1.1111,1.1159,1.1179,1.1197,1.1255,1.1264,1.1289,1.1329,1.1348,1.1381,1.1394,1.1429,1.1448,1.1475,1.1516,1.1526,1.1543,1.1566,1.1561,1.156,1.1562,1.1561,1.1523,1.1574,1.1574,1.1574,1.1574,0,1.1086,1.1099,1.1159,1.1172,1.1187,1.1233,1.1247,1.1276,1.1311,1.133,1.1371,1.1388,1.1442,1.1465,1.1498,1.1519,1.1528,1.1545,1.1554,1.1541,1.1538,1.1551,1.1553,1.1574,1.1574,1.1574,1.1574,0,1.1037,1.1078,1.1103,1.1156,1.117,1.1179,1.1225,1.1239,1.1271,1.1294,1.1303,1.1353,1.1383,1.1427,1.1471,1.1493,1.1509,1.1523,1.1495,1.1499,1.1491,1.1491,1.146,1.1458,1.151,1.151,1.1509,0,1.1017,1.1028,1.1082,1.1097,1.112,1.1145,1.1165,1.1211,1.123,1.1275,1.1284,1.1317,1.1346,1.1392,1.1433,1.1467,1.1481,1.1468,1.1486,1.1473,1.148,1.1478,1.1479,1.1463,1.1462,1.1462,1.1461,0,1.0978,1.0998,1.1024,1.1058,1.108,1.111,1.1141,1.1151,1.1204,1.1223,1.1254,1.1276,1.1321,1.1353,1.1392,1.1419,1.1448,1.1455,1.1455,1.1442,1.1425,1.1433,1.1481,1.1455,1.1456,1.1456,1.1457,1.1457,1.0942,1.0953,1.0993,1.1021,1.1049,1.1078,1.1093,1.1127,1.1153,1.1192,1.1218,1.1247,1.1287,1.1343,1.1368,1.1392,1.1405,1.1405,1.1405,1.1404,1.1399,1.1422,1.14,1.14,1.14,1.14,1.1401,0,1.0903,1.0931,1.0957,1.0999,1.1021,1.1047,1.1083,1.11,1.1125,1.116,1.1187,1.1222,1.1254,1.1298,1.1333,1.1343,1.1358,1.1351,1.135,1.1356,1.1387,1.1383,1.1339,1.1339,1.1339,1.1339,1.1339,1.1339,1.0886,1.0906,1.093,1.0965,1.0994,1.1022,1.104,1.1066,1.1094,1.1131,1.1157,1.1186,1.1224,1.1262,1.1292,1.1305,1.1315,1.1304,1.132,1.1348,1.1354,1.1359,1.1355,1.1306,1.1306,1.1287,1.1286,1.1286]},{"header":{"parameterUnit":"m.s-1","parameterCategory":1,"la1":30.2991,"la2":30.254,"lo1":-89.0895,"lo2":-89.0444,"dy":0.0017,"dx":0.0017,"nx":28,"ny":28,"refTime":"2025-06-06T09:00:00:Z","depth":0,"parameterNumber":3,"parameterNumberName":"V-component_of_WINDS"},"data":[0,0,0,0,0,0,0,0,0,0,0,0,0,0,0,0,0,0,0,0,0,0,0,0,0,0,0,0,0,0,0,0,0,0,0,0,0,0,0,0,0,0,0,0,0,0,0,0,0,0,0,0,0,0,0,0,0,0,3.2422,3.2421,0,3.2362,3.2361,3.236,3.2381,3.2382,3.2383,3.2384,3.2315,3.2312,3.2309,0,0,0,0,0,0,0,0,0,0,0,0,0,3.2545,3.2542,3.2422,3.2421,3.242,3.2362,3.2361,3.236,3.238,3.2382,3.2384,3.2385,3.2316,3.2312,3.2308,0,0,0,0,0,0,0,0,0,0,0,0,0,3.2489,3.2542,3.2422,3.2423,3.2423,3.2362,3.2361,3.236,3.238,3.2382,3.2384,3.2386,3.2317,3.2312,3.2308,3.2239,0,0,3.2294,3.2292,0,0,0,0,0,0,0,0,3.2492,3.2484,3.2424,3.2423,3.2423,3.2381,3.2379,3.2319,3.2379,3.2396,3.2384,3.2387,3.2335,3.2329,3.2313,3.2236,3.2233,3.2293,3.229,3.2288,3.2287,0,0,0,0,0,0,0,3.2496,3.2487,3.2398,3.2423,3.2422,3.2424,3.2419,3.2368,3.2354,3.2395,3.2396,3.2389,3.2334,3.2317,3.2311,3.2232,3.2293,3.2289,3.2286,3.2285,3.2094,3.2092,0,0,0,0,0,0,3.2501,3.249,3.24,3.2396,3.2463,3.2421,3.2414,3.2392,3.2355,3.2352,3.2388,3.239,3.2324,3.2317,3.2309,3.2225,3.2288,3.2284,3.2281,3.2097,3.2094,3.2091,0,0,0,0,0,0,3.2504,3.2493,3.2402,3.2443,3.2432,3.2416,3.2391,3.239,3.2373,3.235,3.2347,3.2373,3.2325,3.2315,3.2257,3.2223,3.2282,3.2278,3.2099,3.2096,3.2093,3.2058,0,0,0,0,0,0,3.2507,3.2494,3.2469,3.2443,3.243,3.2353,3.2389,3.2387,3.2366,3.2369,3.2335,3.2331,3.2326,3.2264,3.2252,3.2218,3.2274,3.2102,3.2098,3.2094,3.2062,3.2054,3.2047,0,0,0,0,0,3.2511,3.246,3.2468,3.2457,3.24,3.2351,3.2344,3.2341,3.2363,3.2337,3.2322,3.2333,3.2229,3.2257,3.2245,3.2208,3.2104,3.2099,3.2094,3.2065,3.2055,3.2047,0,0,0,0,0,0,3.248,3.2457,3.2465,3.2405,3.238,3.2355,3.2322,3.2331,3.2297,3.2301,3.2297,3.2289,3.2229,3.2213,3.2245,3.2139,3.2169,3.2162,3.2152,3.2142,3.2135,3.2139,3.227,0,0,0,0,0,3.2467,3.2433,3.2413,3.2361,3.2349,3.2338,3.2317,3.2317,3.229,3.2279,3.226,3.2232,3.2193,3.2167,3.2129,3.206,3.2052,3.2029,3.2021,3.2015,3.2007,3.1968,3.1957,3.2075,3.2075,3.2075,0,0,3.2438,3.2421,3.2399,3.2355,3.2336,3.2298,3.2329,3.2287,3.2258,3.2272,3.2216,3.2201,3.2168,3.2104,3.2074,3.2089,3.1973,3.2008,3.2004,3.1999,3.1961,3.195,3.194,3.2071,3.2072,3.2072,0,0,3.2365,3.235,3.2305,3.2286,3.2258,3.2251,3.224,3.2214,3.2205,3.215,3.2159,3.2123,3.2056,3.2033,3.2012,3.1931,3.1938,3.1918,3.1878,3.1839,3.183,3.1822,3.1791,3.178,3.1911,3.1911,3.1911,0,3.2332,3.2278,3.228,3.2238,3.2217,3.2231,3.2184,3.2164,3.2124,3.2108,3.2126,3.2042,3.2021,3.1951,3.1931,3.1914,3.1899,3.1921,3.1832,3.1823,3.1815,3.1786,3.1775,3.1909,3.1909,3.191,3.191,0,3.2237,3.2199,3.2165,3.213,3.2105,3.206,3.2053,3.2028,3.203,3.202,3.1962,3.1938,3.1896,3.1879,3.188,3.1808,3.1818,3.1834,3.1863,3.1802,3.1774,3.1763,3.1906,3.1907,3.1907,3.1908,0,0,3.2142,3.2109,3.2096,3.208,3.2051,3.202,3.1975,3.1937,3.1914,3.1886,3.1846,3.1789,3.1804,3.178,3.1778,3.1745,3.168,3.1764,3.1763,3.1748,3.1597,3.1584,3.1572,3.1686,3.1684,3.1682,3.1599,0,3.2066,3.199,3.1991,3.1919,3.1883,3.1896,3.1856,3.1832,3.1822,3.1788,3.1775,3.1735,3.1758,3.1743,3.1711,3.1695,3.1649,3.1701,3.1646,3.1644,3.1652,3.1557,3.1544,3.1467,3.1589,3.1587,3.1585,0,3.1966,3.1938,3.1864,3.184,3.1824,3.1789,3.1754,3.1722,3.1694,3.1688,3.1663,3.1666,3.1617,3.165,3.1581,3.1617,3.1594,3.1583,3.158,3.1573,3.161,3.1546,3.1443,3.1431,3.1569,3.157,3.1571,0,3.1902,3.1846,3.1794,3.1779,3.175,3.1725,3.1711,3.1686,3.1662,3.163,3.1615,3.1576,3.1555,3.1524,3.1516,3.1541,3.1446,3.1479,3.1438,3.1438,3.1416,3.1417,3.1306,3.1404,3.1404,3.1404,3.1405,0,3.1816,3.177,3.1765,3.1733,3.168,3.168,3.1628,3.1615,3.1593,3.1556,3.1564,3.1529,3.1522,3.1484,3.1478,3.1421,3.1411,3.1403,3.1402,3.1402,3.1402,3.1385,3.139,3.1401,3.1402,3.1403,3.1403,0,3.1735,3.173,3.1674,3.1652,3.1645,3.1608,3.1587,3.1555,3.1546,3.15,3.1489,3.1474,3.143,3.142,3.1367,3.1362,3.1295,3.1299,3.1305,3.1304,3.1264,3.1267,3.1136,3.1118,3.123,3.1229,3.1228,0,3.168,3.1645,3.162,3.1597,3.1583,3.1547,3.1524,3.1522,3.1497,3.1463,3.1434,3.1393,3.1359,3.1288,3.127,3.123,3.1232,3.1189,3.1225,3.1226,3.1229,3.1231,3.1226,3.1181,3.118,3.1179,3.1178,0,3.1581,3.1581,3.1549,3.1516,3.1489,3.1462,3.1437,3.1417,3.1412,3.1383,3.134,3.1314,3.1262,3.1219,3.1178,3.116,3.1167,3.1167,3.1155,3.1154,3.1158,3.1154,3.1284,3.117,3.117,3.1171,3.1172,3.1172,3.151,3.148,3.1457,3.1421,3.1402,3.1378,3.1347,3.1336,3.1301,3.126,3.1261,3.1213,3.1185,3.1132,3.1112,3.1073,3.1085,3.1068,3.1064,3.1059,3.1055,3.1166,3.1065,3.1065,3.1066,3.1066,3.1066,0,3.1411,3.1398,3.1365,3.133,3.1301,3.1314,3.1286,3.126,3.1219,3.1194,3.1162,3.1111,3.107,3.105,3.1009,3.0981,3.0983,3.097,3.0971,3.0966,3.1047,3.1061,3.0969,3.0969,3.0969,3.0969,3.0969,3.0969,3.1356,3.1304,3.1301,3.124,3.1226,3.1182,3.1165,3.1142,3.1122,3.1067,3.1034,3.1022,3.0998,3.0955,3.0917,3.0912,3.0895,3.088,3.0876,3.0951,3.0961,3.097,3.0983,3.0877,3.0877,3.0799,3.0798,3.0798]}]]